This demonstration page uses our WeatherBlox Daily Observations layout. Learn more.

Left ArrowRight Arrow

Hourly Observations for January 4, 2018

Temp ( °F °C ) Dew Point ( °F °C ) Humidity (%) Winds ( mph kmh ) Pressure ( in mb ) Visibility ( mi km ) Precip ( " mm )
12:15 am 00:15 Clear 7 -14 3 -16 85 85 WNW 10 17 30.24 1024 10 16 N/A
12:35 am 00:35 Clear 7 -14 3 -16 85 85 WNW 10 17 30.27 1025 10 16 N/A
12:55 am 00:55 Mostly Cloudy 7 -14 3 -16 85 85 WNW 10 17 30.27 1025 10 16 N/A
1:15 am 01:15 Mostly Cloudy 7 -14 3 -16 85 85 WNW 10 17 30.24 1024 10 16 N/A
1:35 am 01:35 Cloudy 7 -14 3 -16 85 85 WNW 7 11 30.27 1025 10 16 N/A
1:55 am 01:55 Cloudy 7 -14 3 -16 85 85 WNW 8 13 30.27 1025 10 16 N/A
2:15 am 02:15 Cloudy 7 -14 3 -16 85 85 WNW 9 15 30.27 1025 10 16 N/A
2:35 am 02:35 Cloudy 7 -14 3 -16 85 85 W 12 19 30.27 1025 10 16 N/A
2:55 am 02:55 Cloudy 7 -14 3 -16 85 85 WNW 9 15 30.27 1025 10 16 N/A
3:15 am 03:15 Cloudy 5 -15 3 -16 92 92 WNW 7 11 30.27 1025 10 16 N/A
3:35 am 03:35 Cloudy 5 -15 1 -17 85 85 WNW 8 13 30.27 1025 10 16 N/A
3:55 am 03:55 Cloudy 3 -16 1 -17 92 92 WNW 8 13 30.27 1025 10 16 N/A
4:15 am 04:15 Partly Cloudy 1 -17 N/A 92 92 W 9 15 30.27 1025 10 16 N/A
4:35 am 04:35 Clear 1 -17 N/A 92 92 WNW 9 15 30.27 1025 10 16 N/A
4:55 am 04:55 Clear 1 -17 -2 -19 85 85 W 8 13 30.27 1025 10 16 N/A
5:15 am 05:15 Clear N/A -2 -19 92 92 W 8 13 30.27 1025 10 16 N/A
5:35 am 05:35 Partly Cloudy 1 -17 N/A 92 92 WNW 8 13 30.27 1025 10 16 N/A
5:55 am 05:55 Cloudy 3 -16 N/A 85 85 WNW 8 13 30.27 1025 10 16 N/A
6:15 am 06:15 Cloudy 3 -16 N/A 85 85 WNW 6 9 30.27 1025 7 11 N/A
6:35 am 06:35 Cloudy 3 -16 N/A 85 85 WNW 5 7 30.27 1025 10 16 N/A
6:55 am 06:55 Cloudy 3 -16 1 -17 92 92 WNW 7 11 30.30 1026 10 16 N/A
7:15 am 07:15 Cloudy 3 -16 1 -17 92 92 NW 7 11 30.30 1026 10 16 N/A
7:35 am 07:35 Cloudy 3 -16 1 -17 92 92 NW 7 11 30.30 1026 10 16 N/A
7:55 am 07:55 Cloudy 3 -16 1 -17 92 92 NW 7 11 30.30 1026 10 16 N/A
8:15 am 08:15 Cloudy 3 -16 1 -17 92 92 NW 8 13 30.30 1026 10 16 N/A
8:35 am 08:35 Cloudy 3 -16 1 -17 92 92 WNW 6 9 30.30 1026 10 16 N/A
8:55 am 08:55 Cloudy 5 -15 3 -16 92 92 WNW 7 11 30.30 1026 7 11 N/A
9:16 am 09:16 Cloudy 5 -15 3 -16 92 92 NW 7 11 30.30 1026 5 8 N/A
9:35 am 09:35 Cloudy 5 -15 3 -16 92 92 NW 7 11 30.30 1026 5 8 N/A
9:55 am 09:55 Cloudy 5 -15 3 -16 92 92 NW 7 11 30.30 1026 10 16 N/A
10:15 am 10:15 Cloudy 7 -14 3 -16 85 85 NW 8 13 30.30 1026 10 16 N/A
10:55 am 10:55 Sunny 9 -13 5 -15 85 85 WNW 7 11 30.30 1026 10 16 N/A
11:15 am 11:15 Sunny 9 -13 5 -15 85 85 WNW 8 13 30.30 1026 10 16 N/A
11:35 am 11:35 Sunny 10 -12 7 -14 85 85 W 7 11 30.30 1026 10 16 N/A
11:55 am 11:55 Sunny 10 -12 7 -14 85 85 WNW 5 7 30.30 1026 10 16 N/A
12:15 pm 12:15 Sunny 12 -11 7 -14 79 79 W 7 11 30.27 1025 10 16 N/A
12:35 pm 12:35 Sunny 14 -10 7 -14 73 73 W 6 9 30.27 1025 10 16 N/A
12:55 pm 12:55 Sunny 14 -10 9 -13 79 79 W 8 13 30.27 1025 10 16 N/A
1:15 pm 13:15 Sunny 14 -10 9 -13 79 79 W 8 13 30.27 1025 10 16 N/A
1:35 pm 13:35 Sunny 16 -9 9 -13 73 73 WNW 9 15 30.27 1025 10 16 N/A
1:55 pm 13:55 Sunny 16 -9 9 -13 73 73 WNW 10 17 30.27 1025 10 16 N/A
2:15 pm 14:15 Sunny 16 -9 9 -13 73 73 NW 12 19 30.27 1025 10 16 N/A
2:35 pm 14:35 Sunny 16 -9 9 -13 73 73 W 9 15 30.27 1025 10 16 N/A
2:55 pm 14:55 Sunny 16 -9 7 -14 67 67 WNW 13 20 30.27 1025 10 16 N/A
3:15 pm 15:15 Sunny 16 -9 7 -14 67 67 NW 12 19 30.27 1025 10 16 N/A
3:35 pm 15:35 Sunny 16 -9 7 -14 67 67 WNW 13 20 30.27 1025 10 16 N/A
3:55 pm 15:55 Sunny 14 -10 7 -14 73 73 WNW 16 26 30.27 1025 10 16 N/A
4:15 pm 16:15 Sunny 12 -11 5 -15 73 73 W 16 26 30.27 1025 10 16 N/A
4:35 pm 16:35 Sunny 10 -12 5 -15 79 79 W 14 22 30.30 1026 10 16 N/A
4:55 pm 16:55 Sunny 10 -12 3 -16 72 72 W 10 17 30.33 1027 10 16 N/A
5:15 pm 17:15 Sunny 9 -13 1 -17 72 72 W 12 19 30.33 1027 10 16 N/A
5:35 pm 17:35 Clear 7 -14 1 -17 78 78 W 13 20 30.33 1027 10 16 N/A
5:55 pm 17:55 Clear 7 -14 1 -17 78 78 W 9 15 30.33 1027 10 16 N/A
6:15 pm 18:15 Clear 5 -15 N/A 78 78 W 12 19 30.33 1027 10 16 N/A
6:35 pm 18:35 Clear 5 -15 N/A 78 78 W 14 22 30.33 1027 10 16 N/A
6:55 pm 18:55 Clear 3 -16 N/A 85 85 W 12 19 30.33 1027 10 16 N/A
7:15 pm 19:15 Clear 5 -15 N/A 78 78 W 12 19 30.33 1027 10 16 N/A
7:35 pm 19:35 Clear 3 -16 -2 -19 78 78 WNW 15 24 30.33 1027 10 16 N/A
7:55 pm 19:55 Clear 3 -16 -2 -19 78 78 WNW 10 17 30.33 1027 10 16 N/A
8:15 pm 20:15 Clear 3 -16 -2 -19 78 78 WNW 12 19 30.33 1027 10 16 N/A
8:35 pm 20:35 Clear 1 -17 -2 -19 85 85 W 13 20 30.33 1027 10 16 N/A
8:55 pm 20:55 Clear 1 -17 -4 -20 78 78 W 9 15 30.33 1027 10 16 N/A
9:15 pm 21:15 Clear N/A -4 -20 84 84 W 9 15 30.36 1028 10 16 N/A
9:35 pm 21:35 Clear N/A -4 -20 84 84 W 12 19 30.33 1027 10 16 N/A
9:55 pm 21:55 Clear N/A -4 -20 84 84 W 9 15 30.33 1027 10 16 N/A
10:15 pm 22:15 Partly Cloudy N/A -4 -20 84 84 W 7 11 30.36 1028 10 16 N/A
10:35 pm 22:35 Mostly Cloudy -2 -19 -4 -20 92 92 W 7 11 30.39 1029 10 16 N/A
10:55 pm 22:55 Mostly Cloudy N/A -4 -20 84 84 W 8 13 30.36 1028 10 16 N/A
11:15 pm 23:15 Mostly Cloudy -2 -19 -6 -21 84 84 W 9 15 30.39 1029 10 16 N/A
11:35 pm 23:35 Clear -4 -20 -6 -21 92 92 W 6 9 30.39 1029 10 16 N/A
11:55 pm 23:55 Clear -2 -19 -6 -21 84 84 W 8 13 30.39 1029 10 16 N/A

Powered by AerisWeather